This demonstration page uses our WeatherBlox Daily Observations layout. Learn more.

41.55636, -103.73856

Hourly Observations for August 5, 2020

Temp ( °F °C ) Dew Point ( °F °C ) Humidity (%) Winds ( mph kmh ) Pressure ( in mb ) Visibility ( mi km ) Precip ( " mm )
12:58 am 00:58 Mostly Clear 85 29.3 49 9.2 28 28 E 6 9 29.92 1013 10 16.0934 0 0
1:58 am 01:58 Clear 78 25.8 55 12.5 44 44 S 10 17 29.92 1013 10 16.0934 0 0
2:58 am 02:58 Clear 73 23 56 13.2 54 54 S 14 22 29.95 1014 10 16.0934 0 0
3:58 am 03:58 Clear 72 22.1 57 14.1 61 61 S 22 35 29.95 1014 10 16.0934 0 0
4:58 am 04:58 Clear 71 21.5 58 14.6 65 65 S 17 28 29.87 1012 10 16.0934 0 0
5:58 am 05:58 Clear 69 20.5 58 14.4 68 68 SSW 14 22 29.94 1014 10 16.0934 0 0
6:58 am 06:58 Mostly Cloudy with Thunderstorms 62 16.6 53 11.7 73 73 W 7 11 30.02 1017 10 16.0934 0.02 0.508
7:58 am 07:58 Windy with Rain Showers Likely 72 22.3 45 7.1 38 38 SSW 35 56 29.89 1012 10 16.0934 0.01 0.254
8:58 am 08:58 Mostly Cloudy 71 21.6 42 5.3 35 35 NNE 3 6 29.88 1012 10 16.0934 0 0
9:58 am 09:58 Clear 65 18.5 44 6.4 45 45 E 6 9 29.91 1013 10 16.0934 0 0
10:58 am 10:58 Clear 61 16 47 8.4 61 61 SW 5 7 29.94 1014 10 16.0934 0 0
11:58 am 11:58 Sunny 57 13.9 47 8.6 71 71 SE 5 7 29.95 1014 10 16.0934 0 0
12:58 pm 12:58 Sunny 64 17.6 49 9.5 59 59 Calm 29.96 1014 10 16.0934 0 0
1:58 pm 13:58 Sunny 69 20.3 49 9.4 50 50 S 3 6 29.97 1015 10 16.0934 0 0
2:58 pm 14:58 Sunny 74 23.4 48 8.9 40 40 E 6 9 29.97 1015 10 16.0934 0 0
3:58 pm 15:58 Sunny 77 24.9 49 9.5 38 38 ESE 7 11 29.96 1014 10 16.0934 0 0
4:58 pm 16:58 Sunny 81 27.2 47 8.2 30 30 E 7 11 29.96 1014 10 16.0934 0 0
5:58 pm 17:58 Sunny 84 29 46 7.7 26 26 ESE 13 20 29.93 1014 10 16.0934 0 0
6:58 pm 18:58 Sunny 86 30 46 7.8 25 25 E 10 17 29.93 1014 10 16.0934 0 0
7:58 pm 19:58 Sunny 88 31.2 47 8.3 24 24 NE 10 17 29.88 1012 10 16.0934 0 0
8:58 pm 20:58 Partly Cloudy 91 32.5 46 8 22 22 ESE 13 20 29.86 1011 10 16.0934 0 0
9:58 pm 21:58 Mostly Sunny 87 30.6 46 7.5 24 24 S 5 7 29.85 1011 10 16.0934 0 0
10:58 pm 22:58 Mostly Cloudy 84 28.8 50 10.2 31 31 ESE 14 22 29.85 1011 10 16.0934 0 0
11:58 pm 23:58 Sunny 82 27.6 50 10 33 33 SE 14 22 29.86 1011 10 16.0934 0 0

Powered by AerisWeather